Time,TemperatureF,DewpointF,PressureIn,WindDirection,WindDirectionDegrees,WindSpeedMPH,WindSpeedGustMPH,Humidity,HourlyPrecipIn,Conditions,Clouds,dailyrainin,SoftwareType,DateUTC
2015-02-28 00:00:00,10.0,3.9,30.71,North,354,3.0,4.0,76,0.00,,,0.00,Wunderground v.1.15,2015-02-28 06:00:00,
2015-02-28 00:05:00,9.9,3.8,30.72,North,2,3.0,5.0,76,0.00,,,0.00,Wunderground v.1.15,2015-02-28 06:05:00,
2015-02-28 00:11:00,9.8,3.7,30.71,North,6,3.0,4.0,76,0.00,,,0.00,Wunderground v.1.15,2015-02-28 06:11:00,
2015-02-28 00:17:00,9.8,3.7,30.72,North,3,3.0,4.0,76,0.00,,,0.00,Wunderground v.1.15,2015-02-28 06:17:00,
2015-02-28 00:23:00,9.8,3.5,30.71,North,8,3.0,4.0,75,0.00,,,0.00,Wunderground v.1.15,2015-02-28 06:23:00,
2015-02-28 00:28:00,9.8,3.7,30.72,North,9,3.0,4.0,76,0.00,,,0.00,Wunderground v.1.15,2015-02-28 06:28:00,
2015-02-28 00:34:00,9.9,3.6,30.72,North,2,2.0,3.0,75,0.00,,,0.00,Wunderground v.1.15,2015-02-28 06:34:00,
2015-02-28 00:40:00,9.9,3.6,30.72,North,9,2.0,2.0,75,0.00,,,0.00,Wunderground v.1.15,2015-02-28 06:40:00,
2015-02-28 00:46:00,9.9,3.6,30.72,North,6,2.0,5.0,75,0.00,,,0.00,Wunderground v.1.15,2015-02-28 06:46:00,
2015-02-28 00:52:00,9.9,3.6,30.71,North,9,3.0,3.0,75,0.00,,,0.00,Wunderground v.1.15,2015-02-28 06:52:00,
2015-02-28 00:57:00,9.9,3.6,30.71,North,6,3.0,4.0,75,0.00,,,0.00,Wunderground v.1.15,2015-02-28 06:57:00,
2015-02-28 01:03:00,9.9,3.6,30.72,North,9,3.0,4.0,75,0.00,,,0.00,Wunderground v.1.15,2015-02-28 07:03:00,
2015-02-28 01:09:00,9.8,3.5,30.72,North,4,3.0,5.0,75,0.00,,,0.00,Wunderground v.1.15,2015-02-28 07:09:00,
2015-02-28 01:15:00,9.8,3.5,30.72,North,10,3.0,4.0,75,0.00,,,0.00,Wunderground v.1.15,2015-02-28 07:15:00,
2015-02-28 01:21:00,9.7,3.4,30.72,NNE,15,3.0,4.0,75,0.00,,,0.00,Wunderground v.1.15,2015-02-28 07:21:00,
2015-02-28 01:26:00,9.8,3.5,30.72,NNE,31,3.0,5.0,75,0.00,,,0.00,Wunderground v.1.15,2015-02-28 07:26:00,
2015-02-28 01:32:00,9.8,3.2,30.72,NE,37,4.0,6.0,74,0.00,,,0.00,Wunderground v.1.15,2015-02-28 07:32:00,
2015-02-28 01:38:00,9.8,3.2,30.72,NE,45,4.0,7.0,74,0.00,,,0.00,Wunderground v.1.15,2015-02-28 07:38:00,
2015-02-28 01:44:00,9.7,2.8,30.72,NE,47,4.0,5.0,73,0.00,,,0.00,Wunderground v.1.15,2015-02-28 07:44:00,
2015-02-28 01:50:00,9.6,3.0,30.72,NE,47,3.0,3.0,74,0.00,,,0.00,Wunderground v.1.15,2015-02-28 07:50:00,
2015-02-28 01:55:00,9.6,3.0,30.72,NE,48,2.0,4.0,74,0.00,,,0.00,Wunderground v.1.15,2015-02-28 07:55:00,
2015-02-28 02:00:00,9.7,3.1,30.71,NE,53,3.0,4.0,74,0.00,,,0.00,Wunderground v.1.15,2015-02-28 08:00:00,
2015-02-28 02:05:00,9.7,3.1,30.71,SE,141,4.0,5.0,74,0.00,,,0.00,Wunderground v.1.15,2015-02-28 08:05:00,
2015-02-28 02:11:00,9.7,3.1,30.71,NE,55,4.0,4.0,74,0.00,,,0.00,Wunderground v.1.15,2015-02-28 08:11:00,
2015-02-28 02:17:00,9.8,3.5,30.71,NE,56,4.0,7.0,75,0.00,,,0.00,Wunderground v.1.15,2015-02-28 08:17:00,
2015-02-28 02:23:00,9.9,3.6,30.71,SE,141,4.0,6.0,75,0.00,,,0.00,Wunderground v.1.15,2015-02-28 08:23:00,
2015-02-28 02:29:00,9.9,3.6,30.71,ENE,62,5.0,7.0,75,0.00,,,0.00,Wunderground v.1.15,2015-02-28 08:29:00,
2015-02-28 02:35:00,9.9,3.6,30.70,ENE,66,5.0,7.0,75,0.00,,,0.00,Wunderground v.1.15,2015-02-28 08:35:00,
2015-02-28 02:40:00,10.0,3.9,30.70,East,81,5.0,6.0,76,0.00,,,0.00,Wunderground v.1.15,2015-02-28 08:40:00,
2015-02-28 02:46:00,10.1,3.8,30.70,East,92,5.0,8.0,75,0.00,,,0.00,Wunderground v.1.15,2015-02-28 08:46:00,
2015-02-28 02:52:00,10.1,3.8,30.70,East,94,5.0,6.0,75,0.00,,,0.00,Wunderground v.1.15,2015-02-28 08:52:00,
2015-02-28 02:58:00,10.1,4.0,30.71,East,90,3.0,6.0,76,0.00,,,0.00,Wunderground v.1.15,2015-02-28 08:58:00,
2015-02-28 03:04:00,10.0,3.9,30.71,East,93,3.0,8.0,76,0.00,,,0.00,Wunderground v.1.15,2015-02-28 09:04:00,
2015-02-28 03:09:00,10.0,3.9,30.70,East,97,4.0,8.0,76,0.00,,,0.00,Wunderground v.1.15,2015-02-28 09:09:00,
2015-02-28 03:15:00,10.0,3.9,30.70,East,93,5.0,8.0,76,0.00,,,0.00,Wunderground v.1.15,2015-02-28 09:15:00,
2015-02-28 03:21:00,10.0,3.9,30.70,East,97,5.0,6.0,76,0.00,,,0.00,Wunderground v.1.15,2015-02-28 09:21:00,
2015-02-28 03:27:00,10.1,4.0,30.71,East,96,4.0,6.0,76,0.00,,,0.00,Wunderground v.1.15,2015-02-28 09:27:00,
2015-02-28 03:32:00,10.2,4.1,30.71,East,95,3.0,4.0,76,0.00,,,0.00,Wunderground v.1.15,2015-02-28 09:32:00,
2015-02-28 03:38:00,10.3,4.2,30.70,SE,141,4.0,6.0,76,0.00,,,0.00,Wunderground v.1.15,2015-02-28 09:38:00,
2015-02-28 03:44:00,10.3,4.2,30.70,East,94,5.0,5.0,76,0.00,,,0.00,Wunderground v.1.15,2015-02-28 09:44:00,
2015-02-28 03:50:00,10.5,4.4,30.70,East,94,4.0,4.0,76,0.00,,,0.00,Wunderground v.1.15,2015-02-28 09:50:00,
2015-02-28 03:56:00,10.5,4.4,30.70,East,92,4.0,5.0,76,0.00,,,0.00,Wunderground v.1.15,2015-02-28 09:56:00,
2015-02-28 04:02:00,10.5,4.4,30.71,East,96,4.0,9.0,76,0.00,,,0.00,Wunderground v.1.15,2015-02-28 10:02:00,
2015-02-28 04:07:00,10.5,4.4,30.71,East,91,5.0,9.0,76,0.00,,,0.00,Wunderground v.1.15,2015-02-28 10:07:00,
2015-02-28 04:13:00,10.5,4.4,30.72,East,93,4.0,5.0,76,0.00,,,0.00,Wunderground v.1.15,2015-02-28 10:13:00,
2015-02-28 04:19:00,10.5,4.4,30.72,East,94,3.0,5.0,76,0.00,,,0.00,Wunderground v.1.15,2015-02-28 10:19:00,
2015-02-28 04:25:00,10.7,4.6,30.72,East,93,4.0,6.0,76,0.00,,,0.00,Wunderground v.1.15,2015-02-28 10:25:00,
2015-02-28 04:31:00,10.7,4.6,30.72,East,94,4.0,5.0,76,0.00,,,0.00,Wunderground v.1.15,2015-02-28 10:31:00,
2015-02-28 04:36:00,10.8,4.7,30.72,East,96,5.0,6.0,76,0.00,,,0.00,Wunderground v.1.15,2015-02-28 10:36:00,
2015-02-28 04:42:00,10.9,4.8,30.71,East,95,5.0,6.0,76,0.00,,,0.00,Wunderground v.1.15,2015-02-28 10:42:00,
2015-02-28 04:48:00,11.0,4.9,30.72,East,94,5.0,7.0,76,0.00,,,0.00,Wunderground v.1.15,2015-02-28 10:48:00,
2015-02-28 04:54:00,11.0,4.9,30.71,East,94,5.0,7.0,76,0.00,,,0.00,Wunderground v.1.15,2015-02-28 10:54:00,
2015-02-28 05:00:00,11.1,5.0,30.71,East,96,6.0,6.0,76,0.00,,,0.00,Wunderground v.1.15,2015-02-28 11:00:00,
2015-02-28 05:05:00,11.1,5.0,30.72,SE,141,5.0,7.0,76,0.00,,,0.00,Wunderground v.1.15,2015-02-28 11:05:00,
2015-02-28 05:11:00,11.2,5.1,30.72,East,95,4.0,6.0,76,0.00,,,0.00,Wunderground v.1.15,2015-02-28 11:11:00,
2015-02-28 05:17:00,11.3,5.2,30.72,East,94,4.0,6.0,76,0.00,,,0.00,Wunderground v.1.15,2015-02-28 11:17:00,
2015-02-28 05:23:00,11.3,5.2,30.72,East,95,4.0,5.0,76,0.00,,,0.00,Wunderground v.1.15,2015-02-28 11:23:00,
2015-02-28 05:28:00,11.4,5.3,30.72,East,92,4.0,6.0,76,0.00,,,0.00,Wunderground v.1.15,2015-02-28 11:28:00,
2015-02-28 05:34:00,11.3,5.2,30.72,SE,141,4.0,6.0,76,0.00,,,0.00,Wunderground v.1.15,2015-02-28 11:34:00,
2015-02-28 05:40:00,11.3,5.2,30.72,East,89,5.0,5.0,76,0.00,,,0.00,Wunderground v.1.15,2015-02-28 11:40:00,
2015-02-28 05:46:00,11.3,5.2,30.72,East,87,5.0,9.0,76,0.00,,,0.00,Wunderground v.1.15,2015-02-28 11:46:00,
2015-02-28 05:52:00,11.3,5.2,30.72,East,83,5.0,6.0,76,0.00,,,0.00,Wunderground v.1.15,2015-02-28 11:52:00,
2015-02-28 05:58:00,11.3,5.2,30.72,East,87,5.0,6.0,76,0.00,,,0.00,Wunderground v.1.15,2015-02-28 11:58:00,
2015-02-28 06:03:00,11.4,5.6,30.72,East,86,5.0,5.0,77,0.00,,,0.00,Wunderground v.1.15,2015-02-28 12:03:00,
2015-02-28 06:09:00,11.5,5.7,30.72,East,89,5.0,8.0,77,0.00,,,0.00,Wunderground v.1.15,2015-02-28 12:09:00,
2015-02-28 06:15:00,11.6,5.5,30.72,East,94,5.0,7.0,76,0.00,,,0.00,Wunderground v.1.15,2015-02-28 12:15:00,
2015-02-28 06:21:00,11.6,5.8,30.72,East,87,5.0,6.0,77,0.00,,,0.00,Wunderground v.1.15,2015-02-28 12:21:00,
2015-02-28 06:27:00,11.7,5.9,30.72,East,92,4.0,6.0,77,0.00,,,0.00,Wunderground v.1.15,2015-02-28 12:27:00,
2015-02-28 06:32:00,11.8,6.0,30.72,East,92,4.0,6.0,77,0.00,,,0.00,Wunderground v.1.15,2015-02-28 12:32:00,
2015-02-28 06:38:00,11.8,6.0,30.72,East,91,4.0,6.0,77,0.00,,,0.00,Wunderground v.1.15,2015-02-28 12:38:00,
2015-02-28 06:44:00,11.9,6.1,30.72,East,92,3.0,6.0,77,0.00,,,0.00,Wunderground v.1.15,2015-02-28 12:44:00,
2015-02-28 06:50:00,12.0,6.2,30.72,SE,141,3.0,4.0,77,0.00,,,0.00,Wunderground v.1.15,2015-02-28 12:50:00,
2015-02-28 06:56:00,12.0,6.2,30.72,East,92,3.0,7.0,77,0.00,,,0.00,Wunderground v.1.15,2015-02-28 12:56:00,
2015-02-28 07:01:00,12.1,6.3,30.72,East,90,4.0,6.0,77,0.00,,,0.00,Wunderground v.1.15,2015-02-28 13:01:00,
2015-02-28 07:07:00,12.1,6.3,30.72,East,91,4.0,6.0,77,0.00,,,0.00,Wunderground v.1.15,2015-02-28 13:07:00,
2015-02-28 07:13:00,12.2,6.4,30.72,East,90,4.0,5.0,77,0.00,,,0.00,Wunderground v.1.15,2015-02-28 13:13:00,
2015-02-28 07:19:00,12.4,6.6,30.72,East,90,4.0,5.0,77,0.00,,,0.00,Wunderground v.1.15,2015-02-28 13:19:00,
2015-02-28 07:24:00,12.5,6.7,30.72,East,92,4.0,8.0,77,0.00,,,0.00,Wunderground v.1.15,2015-02-28 13:24:00,
2015-02-28 07:30:00,12.7,6.9,30.72,East,91,5.0,5.0,77,0.00,,,0.00,Wunderground v.1.15,2015-02-28 13:30:00,
2015-02-28 07:36:00,13.1,7.2,30.72,East,90,5.0,7.0,77,0.00,,,0.00,Wunderground v.1.15,2015-02-28 13:36:00,
2015-02-28 07:42:00,13.5,7.3,30.72,East,93,5.0,8.0,76,0.00,,,0.00,Wunderground v.1.15,2015-02-28 13:42:00,
2015-02-28 07:48:00,13.6,7.1,30.73,East,90,5.0,8.0,75,0.00,,,0.00,Wunderground v.1.15,2015-02-28 13:48:00,
2015-02-28 07:53:00,13.5,7.0,30.73,East,92,5.0,7.0,75,0.00,,,0.00,Wunderground v.1.15,2015-02-28 13:53:00,
2015-02-28 07:59:00,13.5,7.0,30.73,East,90,5.0,7.0,75,0.00,,,0.00,Wunderground v.1.15,2015-02-28 13:59:00,
2015-02-28 08:05:00,13.6,7.1,30.73,East,84,5.0,5.0,75,0.00,,,0.00,Wunderground v.1.15,2015-02-28 14:05:00,
2015-02-28 08:11:00,13.8,7.3,30.72,East,90,4.0,6.0,75,0.00,,,0.00,Wunderground v.1.15,2015-02-28 14:11:00,
2015-02-28 08:16:00,14.0,7.2,30.72,East,94,5.0,7.0,74,0.00,,,0.00,Wunderground v.1.15,2015-02-28 14:16:00,
2015-02-28 08:22:00,14.0,7.5,30.72,East,99,5.0,7.0,75,0.00,,,0.00,Wunderground v.1.15,2015-02-28 14:22:00,
2015-02-28 08:28:00,14.4,7.9,30.72,East,98,5.0,9.0,75,0.00,,,0.00,Wunderground v.1.15,2015-02-28 14:28:00,
2015-02-28 08:34:00,14.7,7.6,30.72,East,93,6.0,8.0,73,0.00,,,0.00,Wunderground v.1.15,2015-02-28 14:34:00,
2015-02-28 08:40:00,14.6,7.5,30.72,East,95,7.0,8.0,73,0.00,,,0.00,Wunderground v.1.15,2015-02-28 14:40:00,
2015-02-28 08:45:00,14.9,7.8,30.72,ESE,102,7.0,8.0,73,0.00,,,0.00,Wunderground v.1.15,2015-02-28 14:45:00,
2015-02-28 08:51:00,15.3,7.9,30.72,East,94,6.0,6.0,72,0.00,,,0.00,Wunderground v.1.15,2015-02-28 14:51:00,
2015-02-28 08:57:00,15.5,7.8,30.72,East,90,6.0,9.0,71,0.00,,,0.00,Wunderground v.1.15,2015-02-28 14:57:00,
2015-02-28 09:03:00,15.5,7.8,30.72,East,84,7.0,8.0,71,0.00,,,0.00,Wunderground v.1.15,2015-02-28 15:03:00,
2015-02-28 09:09:00,15.7,8.0,30.71,East,81,6.0,8.0,71,0.00,,,0.00,Wunderground v.1.15,2015-02-28 15:09:00,
2015-02-28 09:14:00,15.8,8.1,30.71,East,81,6.0,7.0,71,0.00,,,0.00,Wunderground v.1.15,2015-02-28 15:14:00,
2015-02-28 09:20:00,16.0,8.3,30.71,East,85,6.0,7.0,71,0.00,,,0.00,Wunderground v.1.15,2015-02-28 15:20:00,
2015-02-28 09:26:00,16.1,8.0,30.71,East,87,6.0,8.0,70,0.00,,,0.00,Wunderground v.1.15,2015-02-28 15:26:00,
2015-02-28 09:32:00,16.6,8.5,30.71,East,93,6.0,8.0,70,0.00,,,0.00,Wunderground v.1.15,2015-02-28 15:32:00,
2015-02-28 09:37:00,16.8,8.4,30.71,East,89,6.0,8.0,69,0.00,,,0.00,Wunderground v.1.15,2015-02-28 15:37:00,
2015-02-28 09:43:00,16.8,8.7,30.70,East,90,6.0,9.0,70,0.00,,,0.00,Wunderground v.1.15,2015-02-28 15:43:00,
2015-02-28 09:49:00,17.2,8.8,30.70,East,90,6.0,9.0,69,0.00,,,0.00,Wunderground v.1.15,2015-02-28 15:49:00,
2015-02-28 09:55:00,17.5,9.1,30.70,East,81,5.0,8.0,69,0.00,,,0.00,Wunderground v.1.15,2015-02-28 15:55:00,
2015-02-28 10:00:00,17.3,8.5,30.70,East,87,6.0,6.0,68,0.00,,,0.00,Wunderground v.1.15,2015-02-28 16:00:00,
2015-02-28 10:05:00,17.5,9.1,30.70,East,90,5.0,6.0,69,0.00,,,0.00,Wunderground v.1.15,2015-02-28 16:05:00,
2015-02-28 10:11:00,17.7,9.2,30.70,East,87,5.0,6.0,69,0.00,,,0.00,Wunderground v.1.15,2015-02-28 16:11:00,
2015-02-28 10:17:00,17.9,9.4,30.70,East,92,5.0,7.0,69,0.00,,,0.00,Wunderground v.1.15,2015-02-28 16:17:00,
2015-02-28 10:22:00,18.0,9.9,30.70,East,89,6.0,8.0,70,0.00,,,0.00,Wunderground v.1.15,2015-02-28 16:22:00,
2015-02-28 10:28:00,18.4,9.9,30.69,ESE,103,7.0,8.0,69,0.00,,,0.00,Wunderground v.1.15,2015-02-28 16:28:00,
2015-02-28 10:34:00,18.8,10.3,30.69,East,93,6.0,8.0,69,0.00,,,0.00,Wunderground v.1.15,2015-02-28 16:34:00,
2015-02-28 10:40:00,18.9,10.4,30.68,East,95,7.0,7.0,69,0.00,,,0.00,Wunderground v.1.15,2015-02-28 16:40:00,
2015-02-28 10:46:00,19.1,10.6,30.68,East,87,6.0,11.0,69,0.00,,,0.00,Wunderground v.1.15,2015-02-28 16:46:00,
2015-02-28 10:51:00,19.1,10.3,30.68,East,100,8.0,10.0,68,0.00,,,0.00,Wunderground v.1.15,2015-02-28 16:51:00,
2015-02-28 10:57:00,19.2,10.4,30.68,East,85,9.0,10.0,68,0.00,,,0.00,Wunderground v.1.15,2015-02-28 16:57:00,
2015-02-28 11:03:00,19.6,11.4,30.68,East,84,7.0,8.0,70,0.00,,,0.00,Wunderground v.1.15,2015-02-28 17:03:00,
2015-02-28 11:09:00,20.1,11.2,30.68,ESE,111,5.0,9.0,68,0.00,,,0.00,Wunderground v.1.15,2015-02-28 17:09:00,
2015-02-28 11:14:00,20.2,11.7,30.67,East,83,6.0,8.0,69,0.00,,,0.00,Wunderground v.1.15,2015-02-28 17:14:00,
2015-02-28 11:20:00,20.5,11.6,30.67,East,90,6.0,10.0,68,0.00,,,0.00,Wunderground v.1.15,2015-02-28 17:20:00,
2015-02-28 11:26:00,20.6,11.7,30.67,East,99,7.0,10.0,68,0.00,,,0.00,Wunderground v.1.15,2015-02-28 17:26:00,
2015-02-28 11:32:00,21.0,12.1,30.66,East,94,7.0,7.0,68,0.00,,,0.00,Wunderground v.1.15,2015-02-28 17:32:00,
2015-02-28 11:38:00,21.3,12.4,30.66,East,100,6.0,8.0,68,0.00,,,0.00,Wunderground v.1.15,2015-02-28 17:38:00,
2015-02-28 11:44:00,21.4,12.1,30.66,East,88,6.0,9.0,67,0.00,,,0.00,Wunderground v.1.15,2015-02-28 17:44:00,
2015-02-28 11:49:00,21.7,12.8,30.67,East,96,6.0,9.0,68,0.00,,,0.00,Wunderground v.1.15,2015-02-28 17:49:00,
2015-02-28 11:55:00,22.2,13.2,30.66,East,99,4.0,7.0,68,0.00,,,0.00,Wunderground v.1.15,2015-02-28 17:55:00,
2015-02-28 12:00:00,22.9,14.2,30.66,East,98,4.0,9.0,69,0.00,,,0.00,Wunderground v.1.15,2015-02-28 18:00:00,
2015-02-28 12:05:00,23.3,13.3,30.65,ESE,118,5.0,10.0,65,0.00,,,0.00,Wunderground v.1.15,2015-02-28 18:05:00,
2015-02-28 12:11:00,23.4,13.0,30.65,ESE,119,7.0,8.0,64,0.00,,,0.00,Wunderground v.1.15,2015-02-28 18:11:00,
2015-02-28 12:17:00,23.4,13.0,30.64,East,96,7.0,9.0,64,0.00,,,0.00,Wunderground v.1.15,2015-02-28 18:17:00,
2015-02-28 12:23:00,23.7,13.6,30.64,East,92,6.0,8.0,65,0.00,,,0.00,Wunderground v.1.15,2015-02-28 18:23:00,
2015-02-28 12:29:00,23.6,13.5,30.64,East,94,6.0,8.0,65,0.00,,,0.00,Wunderground v.1.15,2015-02-28 18:29:00,
2015-02-28 12:35:00,23.6,13.9,30.63,East,90,6.0,9.0,66,0.00,,,0.00,Wunderground v.1.15,2015-02-28 18:35:00,
2015-02-28 12:40:00,23.9,13.5,30.63,East,92,6.0,6.0,64,0.00,,,0.00,Wunderground v.1.15,2015-02-28 18:40:00,
2015-02-28 12:46:00,24.0,13.9,30.63,East,90,6.0,8.0,65,0.00,,,0.00,Wunderground v.1.15,2015-02-28 18:46:00,
2015-02-28 12:52:00,23.9,14.5,30.62,East,92,5.0,6.0,67,0.00,,,0.00,Wunderground v.1.15,2015-02-28 18:52:00,
2015-02-28 12:58:00,24.2,14.8,30.61,East,89,5.0,7.0,67,0.00,,,0.00,Wunderground v.1.15,2015-02-28 18:58:00,
2015-02-28 13:04:00,24.4,14.7,30.61,East,92,5.0,8.0,66,0.00,,,0.00,Wunderground v.1.15,2015-02-28 19:04:00,
2015-02-28 13:10:00,24.3,14.9,30.60,ENE,72,6.0,7.0,67,0.00,,,0.00,Wunderground v.1.15,2015-02-28 19:10:00,
2015-02-28 13:16:00,24.3,15.3,30.59,SE,141,7.0,9.0,68,0.00,,,0.00,Wunderground v.1.15,2015-02-28 19:16:00,
2015-02-28 13:21:00,24.5,15.4,30.59,East,89,5.0,6.0,68,0.00,,,0.00,Wunderground v.1.15,2015-02-28 19:21:00,
2015-02-28 13:27:00,24.7,14.9,30.60,SE,141,5.0,8.0,66,0.00,,,0.00,Wunderground v.1.15,2015-02-28 19:27:00,
2015-02-28 13:33:00,24.7,15.3,30.59,East,91,6.0,7.0,67,0.00,,,0.00,Wunderground v.1.15,2015-02-28 19:33:00,
2015-02-28 13:39:00,24.8,14.0,30.58,ENE,77,6.0,8.0,63,0.00,,,0.00,Wunderground v.1.15,2015-02-28 19:39:00,
2015-02-28 13:45:00,24.8,13.6,30.58,East,87,6.0,9.0,62,0.00,,,0.00,Wunderground v.1.15,2015-02-28 19:45:00,
2015-02-28 13:50:00,25.0,13.8,30.58,East,92,6.0,6.0,62,0.00,,,0.00,Wunderground v.1.15,2015-02-28 19:50:00,
2015-02-28 13:56:00,25.3,14.1,30.58,East,87,5.0,6.0,62,0.00,,,0.00,Wunderground v.1.15,2015-02-28 19:56:00,
2015-02-28 14:02:00,25.2,14.0,30.58,East,84,6.0,10.0,62,0.00,,,0.00,Wunderground v.1.15,2015-02-28 20:02:00,
2015-02-28 14:08:00,25.4,14.2,30.58,East,96,6.0,10.0,62,0.00,,,0.00,Wunderground v.1.15,2015-02-28 20:08:00,
2015-02-28 14:14:00,25.3,14.5,30.58,East,93,5.0,7.0,63,0.00,,,0.00,Wunderground v.1.15,2015-02-28 20:14:00,
2015-02-28 14:19:00,25.3,14.5,30.58,East,90,5.0,7.0,63,0.00,,,0.00,Wunderground v.1.15,2015-02-28 20:19:00,
2015-02-28 14:25:00,25.3,14.5,30.57,East,87,5.0,7.0,63,0.00,,,0.00,Wunderground v.1.15,2015-02-28 20:25:00,
2015-02-28 14:31:00,25.5,14.6,30.57,East,100,5.0,7.0,63,0.00,,,0.00,Wunderground v.1.15,2015-02-28 20:31:00,
2015-02-28 14:37:00,25.4,15.6,30.57,SE,141,5.0,7.0,66,0.00,,,0.00,Wunderground v.1.15,2015-02-28 20:37:00,
2015-02-28 14:43:00,25.5,16.1,30.58,SE,126,4.0,5.0,67,0.00,,,0.00,Wunderground v.1.15,2015-02-28 20:43:00,
2015-02-28 14:49:00,25.1,16.7,30.57,ESE,102,5.0,9.0,70,0.00,,,0.00,Wunderground v.1.15,2015-02-28 20:49:00,
2015-02-28 14:55:00,24.6,17.5,30.57,ESE,104,6.0,7.0,74,0.00,,,0.00,Wunderground v.1.15,2015-02-28 20:55:00,
2015-02-28 15:00:00,24.3,17.8,30.57,ESE,120,6.0,8.0,76,0.00,,,0.00,Wunderground v.1.15,2015-02-28 21:00:00,
2015-02-28 15:05:00,23.9,18.0,30.57,SE,125,7.0,8.0,78,0.00,,,0.00,Wunderground v.1.15,2015-02-28 21:05:00,
2015-02-28 15:11:00,23.6,18.0,30.57,ESE,120,6.0,7.0,79,0.00,,,0.00,Wunderground v.1.15,2015-02-28 21:11:00,
2015-02-28 15:17:00,23.6,18.6,30.57,ESE,115,5.0,7.0,81,0.00,,,0.00,Wunderground v.1.15,2015-02-28 21:17:00,
2015-02-28 15:22:00,23.5,18.8,30.57,SE,141,5.0,8.0,82,0.00,,,0.00,Wunderground v.1.15,2015-02-28 21:22:00,
2015-02-28 15:28:00,23.5,19.1,30.57,ESE,114,5.0,8.0,83,0.00,,,0.00,Wunderground v.1.15,2015-02-28 21:28:00,
2015-02-28 15:34:00,23.5,19.4,30.57,ESE,113,4.0,5.0,84,0.00,,,0.00,Wunderground v.1.15,2015-02-28 21:34:00,
2015-02-28 15:40:00,23.4,19.3,30.56,ESE,112,4.0,4.0,84,0.00,,,0.00,Wunderground v.1.15,2015-02-28 21:40:00,
2015-02-28 15:46:00,23.4,19.6,30.55,ESE,114,4.0,7.0,85,0.00,,,0.00,Wunderground v.1.15,2015-02-28 21:46:00,
2015-02-28 15:51:00,23.3,19.5,30.55,ESE,111,4.0,5.0,85,0.00,,,0.00,Wunderground v.1.15,2015-02-28 21:51:00,
2015-02-28 15:57:00,23.2,19.6,30.56,ESE,108,4.0,8.0,86,0.00,,,0.00,Wunderground v.1.15,2015-02-28 21:57:00,
2015-02-28 16:03:00,23.0,19.7,30.55,ESE,105,4.0,6.0,87,0.00,,,0.00,Wunderground v.1.15,2015-02-28 22:03:00,
2015-02-28 16:09:00,22.9,19.6,30.55,ESE,102,4.0,6.0,87,0.00,,,0.00,Wunderground v.1.15,2015-02-28 22:09:00,
2015-02-28 16:15:00,23.0,20.0,30.55,ESE,102,3.0,7.0,88,0.00,,,0.00,Wunderground v.1.15,2015-02-28 22:15:00,
2015-02-28 16:20:00,22.9,19.9,30.54,East,100,4.0,4.0,88,0.00,,,0.00,Wunderground v.1.15,2015-02-28 22:20:00,
2015-02-28 16:26:00,22.9,19.9,30.55,ESE,102,5.0,8.0,88,0.00,,,0.00,Wunderground v.1.15,2015-02-28 22:26:00,
2015-02-28 16:32:00,22.8,19.8,30.54,ESE,105,5.0,5.0,88,0.00,,,0.00,Wunderground v.1.15,2015-02-28 22:32:00,
2015-02-28 16:38:00,22.8,19.8,30.55,East,100,4.0,7.0,88,0.00,,,0.00,Wunderground v.1.15,2015-02-28 22:38:00,
2015-02-28 16:44:00,22.7,19.7,30.54,East,100,5.0,8.0,88,0.00,,,0.00,Wunderground v.1.15,2015-02-28 22:44:00,
2015-02-28 16:49:00,22.6,19.6,30.54,East,101,6.0,9.0,88,0.00,,,0.00,Wunderground v.1.15,2015-02-28 22:49:00,
2015-02-28 16:55:00,22.5,19.5,30.54,ESE,104,5.0,6.0,88,0.00,,,0.00,Wunderground v.1.15,2015-02-28 22:55:00,
2015-02-28 17:00:00,22.4,19.6,30.54,East,100,5.0,6.0,89,0.00,,,0.00,Wunderground v.1.15,2015-02-28 23:00:00,
2015-02-28 17:06:00,22.4,19.6,30.54,SE,141,4.0,6.0,89,0.00,,,0.00,Wunderground v.1.15,2015-02-28 23:06:00,
2015-02-28 17:12:00,22.5,19.7,30.54,ESE,102,3.0,7.0,89,0.00,,,0.00,Wunderground v.1.15,2015-02-28 23:12:00,
2015-02-28 17:18:00,22.4,19.6,30.54,ESE,102,4.0,7.0,89,0.00,,,0.00,Wunderground v.1.15,2015-02-28 23:18:00,
2015-02-28 17:23:00,22.4,19.9,30.54,East,100,4.0,4.0,90,0.00,,,0.00,Wunderground v.1.15,2015-02-28 23:23:00,
2015-02-28 17:29:00,22.4,19.9,30.54,SE,141,4.0,5.0,90,0.00,,,0.00,Wunderground v.1.15,2015-02-28 23:29:00,
2015-02-28 17:35:00,22.4,19.9,30.54,East,99,3.0,6.0,90,0.00,,,0.00,Wunderground v.1.15,2015-02-28 23:35:00,
2015-02-28 17:41:00,22.4,19.9,30.54,East,101,3.0,4.0,90,0.00,,,0.00,Wunderground v.1.15,2015-02-28 23:41:00,
2015-02-28 17:47:00,22.4,19.9,30.54,ESE,102,3.0,5.0,90,0.00,,,0.00,Wunderground v.1.15,2015-02-28 23:47:00,
2015-02-28 17:52:00,22.4,19.9,30.55,East,99,3.0,4.0,90,0.00,,,0.00,Wunderground v.1.15,2015-02-28 23:52:00,
2015-02-28 17:58:00,22.4,19.9,30.55,ESE,102,3.0,5.0,90,0.00,,,0.00,Wunderground v.1.15,2015-02-28 23:58:00,
2015-02-28 18:04:00,22.4,20.2,30.54,East,96,3.0,5.0,91,0.00,,,0.00,Wunderground v.1.15,2015-03-01 00:04:00,
2015-02-28 18:10:00,22.4,20.2,30.55,ESE,102,3.0,4.0,91,0.00,,,0.00,Wunderground v.1.15,2015-03-01 00:10:00,
2015-02-28 18:16:00,22.4,20.2,30.55,East,101,3.0,4.0,91,0.00,,,0.00,Wunderground v.1.15,2015-03-01 00:16:00,
2015-02-28 18:21:00,22.4,20.2,30.54,East,101,3.0,4.0,91,0.00,,,0.00,Wunderground v.1.15,2015-03-01 00:21:00,
2015-02-28 18:27:00,22.4,20.2,30.55,SE,141,4.0,6.0,91,0.00,,,0.00,Wunderground v.1.15,2015-03-01 00:27:00,
2015-02-28 18:33:00,22.4,20.2,30.54,ESE,102,4.0,6.0,91,0.00,,,0.00,Wunderground v.1.15,2015-03-01 00:33:00,
2015-02-28 18:39:00,22.3,20.1,30.55,East,101,3.0,6.0,91,0.00,,,0.00,Wunderground v.1.15,2015-03-01 00:39:00,
2015-02-28 18:45:00,22.4,20.2,30.55,East,99,2.0,4.0,91,0.00,,,0.00,Wunderground v.1.15,2015-03-01 00:45:00,
2015-02-28 18:50:00,22.4,20.2,30.54,East,101,3.0,4.0,91,0.00,,,0.00,Wunderground v.1.15,2015-03-01 00:50:00,
2015-02-28 18:56:00,22.4,20.2,30.54,East,98,3.0,4.0,91,0.00,,,0.00,Wunderground v.1.15,2015-03-01 00:56:00,
2015-02-28 19:02:00,22.4,20.2,30.54,East,98,4.0,5.0,91,0.00,,,0.00,Wunderground v.1.15,2015-03-01 01:02:00,
2015-02-28 19:08:00,22.4,20.2,30.53,East,99,4.0,5.0,91,0.00,,,0.00,Wunderground v.1.15,2015-03-01 01:08:00,
2015-02-28 19:14:00,22.4,20.2,30.53,East,98,4.0,7.0,91,0.00,,,0.00,Wunderground v.1.15,2015-03-01 01:14:00,
2015-02-28 19:20:00,22.4,20.2,30.53,East,97,5.0,5.0,91,0.00,,,0.00,Wunderground v.1.15,2015-03-01 01:20:00,
2015-02-28 19:26:00,22.4,20.2,30.53,East,97,4.0,5.0,91,0.00,,,0.00,Wunderground v.1.15,2015-03-01 01:26:00,
2015-02-28 19:32:00,22.4,20.2,30.53,SE,141,3.0,9.0,91,0.00,,,0.00,Wunderground v.1.15,2015-03-01 01:32:00,
2015-02-28 19:37:00,22.4,20.2,30.53,East,95,5.0,9.0,91,0.00,,,0.00,Wunderground v.1.15,2015-03-01 01:37:00,
2015-02-28 19:43:00,22.4,20.2,30.53,East,97,5.0,6.0,91,0.00,,,0.00,Wunderground v.1.15,2015-03-01 01:43:00,
2015-02-28 19:49:00,22.4,20.2,30.53,SE,141,4.0,6.0,91,0.00,,,0.00,Wunderground v.1.15,2015-03-01 01:49:00,
2015-02-28 19:55:00,22.4,20.4,30.52,East,95,4.0,5.0,92,0.00,,,0.00,Wunderground v.1.15,2015-03-01 01:55:00,
2015-02-28 20:00:00,22.4,20.4,30.52,East,91,4.0,4.0,92,0.00,,,0.00,Wunderground v.1.15,2015-03-01 02:00:00,
2015-02-28 20:06:00,22.4,20.4,30.52,East,99,4.0,7.0,92,0.00,,,0.00,Wunderground v.1.15,2015-03-01 02:06:00,
2015-02-28 20:11:00,22.4,20.4,30.52,East,94,4.0,4.0,92,0.00,,,0.00,Wunderground v.1.15,2015-03-01 02:11:00,
2015-02-28 20:17:00,22.3,20.3,30.52,East,97,4.0,5.0,92,0.00,,,0.00,Wunderground v.1.15,2015-03-01 02:17:00,
2015-02-28 20:23:00,22.3,20.3,30.52,East,94,5.0,7.0,92,0.00,,,0.00,Wunderground v.1.15,2015-03-01 02:23:00,
2015-02-28 20:29:00,22.3,20.3,30.51,East,94,5.0,8.0,92,0.00,,,0.00,Wunderground v.1.15,2015-03-01 02:29:00,
2015-02-28 20:35:00,22.3,20.3,30.51,East,93,5.0,7.0,92,0.00,,,0.00,Wunderground v.1.15,2015-03-01 02:35:00,
2015-02-28 20:41:00,22.3,20.3,30.51,East,95,5.0,5.0,92,0.00,,,0.00,Wunderground v.1.15,2015-03-01 02:41:00,
2015-02-28 20:46:00,22.3,20.3,30.50,East,92,4.0,7.0,92,0.00,,,0.00,Wunderground v.1.15,2015-03-01 02:46:00,
2015-02-28 20:52:00,22.4,20.4,30.51,East,94,4.0,5.0,92,0.00,,,0.00,Wunderground v.1.15,2015-03-01 02:52:00,
2015-02-28 20:58:00,22.4,20.4,30.51,East,93,4.0,6.0,92,0.00,,,0.00,Wunderground v.1.15,2015-03-01 02:58:00,
2015-02-28 21:04:00,22.3,20.3,30.50,SE,141,4.0,6.0,92,0.00,,,0.00,Wunderground v.1.15,2015-03-01 03:04:00,
2015-02-28 21:10:00,22.3,20.3,30.51,East,92,4.0,5.0,92,0.00,,,0.00,Wunderground v.1.15,2015-03-01 03:10:00,
2015-02-28 21:16:00,22.3,20.3,30.51,East,92,4.0,5.0,92,0.00,,,0.00,Wunderground v.1.15,2015-03-01 03:16:00,
2015-02-28 21:22:00,22.4,20.4,30.51,East,95,4.0,4.0,92,0.00,,,0.00,Wunderground v.1.15,2015-03-01 03:22:00,
2015-02-28 21:28:00,22.3,20.3,30.51,East,90,3.0,6.0,92,0.00,,,0.00,Wunderground v.1.15,2015-03-01 03:28:00,
2015-02-28 21:33:00,22.3,20.3,30.50,SE,141,5.0,6.0,92,0.00,,,0.00,Wunderground v.1.15,2015-03-01 03:33:00,
2015-02-28 21:39:00,22.3,20.3,30.50,East,95,5.0,6.0,92,0.00,,,0.00,Wunderground v.1.15,2015-03-01 03:39:00,
2015-02-28 21:45:00,22.3,20.3,30.50,East,93,3.0,5.0,92,0.00,,,0.00,Wunderground v.1.15,2015-03-01 03:45:00,
2015-02-28 21:51:00,22.3,20.3,30.50,East,93,4.0,4.0,92,0.00,,,0.00,Wunderground v.1.15,2015-03-01 03:51:00,